M I D A S
Marine Information and Data Acquisition System
Tripno 2022 of the Zeeleeuw from 2010-09-07 06:20:03 to 2010-09-07 10:14:17
Back to CruiseResearch ActivitiesStationsMapUnderway DataData graphs

EquipmentUnitsComments
TimeDGPSUTC
LatitudeDGPSDM.mWGS84
LongitudeDGPSDM.mWGS84
SpeedMeteo Stationm/sRelative wind speed
DirectionMeteo StationdegRelative wind direction
TemperatureMeteo Stationdeg CelciusAir temperature
PressureMeteo StationPaAtmospheric pressure
HumidityMeteo Station%Relative humidity
Missing or incorrect values are displayed as -999
Metereological data collected by the RV Zeeleeuw from 2010-09-07 06:20:47 to 2010-09-07 10:14:16
                                                                                    Next 1000 lines
Time Latitude Longitude Speed Direction Temperature Pressure Humidity
2010-09-07 06:20:57 51°13.663 2°55.956 0.6 355 14.2 100200 51
2010-09-07 06:21:02 51°13.663 2°55.954 0.2 1 14.2 100200 51
2010-09-07 06:21:07 51°13.664 2°55.951 0.3 11 14.2 100200 51
2010-09-07 06:21:12 51°13.665 2°55.947 0.2 8 14.2 100200 52
2010-09-07 06:21:17 51°13.666 2°55.943 0.4 15 14.2 100200 52
2010-09-07 06:21:22 51°13.667 2°55.937 0.6 9 14.2 100200 51
2010-09-07 06:21:27 51°13.668 2°55.932 0.4 15 14.2 100200 51
2010-09-07 06:21:32 51°13.67 2°55.925 0.3 18 14.2 100210 51
2010-09-07 06:21:37 51°13.671 2°55.919 0.3 40 14.2 100210 51
2010-09-07 06:21:42 51°13.673 2°55.912 1.1 40 14.2 100200 51
2010-09-07 06:21:47 51°13.674 2°55.904 1.3 32 14.2 100200 51
2010-09-07 06:21:52 51°13.676 2°55.896 1.5 32 14.2 100210 51
2010-09-07 06:21:57 51°13.677 2°55.887 1.1 27 14.2 100210 51
2010-09-07 06:22:02 51°13.678 2°55.878 0.8 29 14.2 100210 50
2010-09-07 06:22:07 51°13.679 2°55.869 1.4 37 14.2 100210 50
2010-09-07 06:22:12 51°13.681 2°55.86 1.5 40 14.2 100210 51
2010-09-07 06:22:17 51°13.683 2°55.85 1.8 42 14.2 100210 51
2010-09-07 06:22:22 51°13.684 2°55.841 1.7 36 14.2 100210 51
2010-09-07 06:22:27 51°13.685 2°55.832 1.6 40 14.2 100210 51
2010-09-07 06:22:32 51°13.686 2°55.823 2.4 44 14.2 100210 51
2010-09-07 06:22:37 51°13.687 2°55.814 2.2 38 14.2 100210 51
2010-09-07 06:22:42 51°13.688 2°55.805 2.6 42 14.2 100210 50
2010-09-07 06:22:47 51°13.689 2°55.797 2.1 35 14.2 100210 50
2010-09-07 06:22:52 51°13.689 2°55.789 1.6 38 14.2 100210 52
2010-09-07 06:22:57 51°13.69 2°55.781 3.5 38 14.2 100210 52
2010-09-07 06:23:02 51°13.69 2°55.773 3.1 32 14.2 100210 50
2010-09-07 06:23:07 51°13.69 2°55.766 2.6 35 14.2 100210 50
2010-09-07 06:23:12 51°13.69 2°55.76 2.3 38 14.2 100200 51
2010-09-07 06:23:17 51°13.69 2°55.753 2.1 52 14.2 100200 51
2010-09-07 06:23:22 51°13.689 2°55.747 1.9 35 14.2 100210 53
2010-09-07 06:23:27 51°13.689 2°55.743 1.5 39 14.2 100210 53
2010-09-07 06:23:32 51°13.688 2°55.739 2 36 14.2 100200 53
2010-09-07 06:23:37 51°13.687 2°55.736 2.1 33 14.2 100200 53
2010-09-07 06:23:41 51°13.687 2°55.734 2.5 33 14.2 100210 50
2010-09-07 06:23:47 51°13.686 2°55.733 1.6 36 14.2 100210 50
2010-09-07 06:23:52 51°13.686 2°55.733 1.3 31 14.2 100210 52
2010-09-07 06:23:56 51°13.686 2°55.734 1.6 38 14.2 100210 52
2010-09-07 06:24:01 51°13.686 2°55.735 1.1 34 14.2 100210 52
2010-09-07 06:24:06 51°13.686 2°55.736 1.7 45 14.2 100210 52
2010-09-07 06:24:11 51°13.687 2°55.737 1 43 14.2 100200 50
2010-09-07 06:24:16 51°13.688 2°55.739 0.9 41 14.2 100200 50
2010-09-07 06:24:21 51°13.689 2°55.741 1.2 34 14.2 100200 53
2010-09-07 06:24:26 51°13.69 2°55.744 0.7 35 14.2 100200 53
2010-09-07 06:24:31 51°13.692 2°55.746 1.2 39 14.2 100210 51
2010-09-07 06:24:36 51°13.694 2°55.748 0.5 39 14.2 100210 51
2010-09-07 06:24:40 51°13.695 2°55.749 0.8 39 14.2 100210 49
2010-09-07 06:24:46 51°13.698 2°55.751 0.2 40 14.2 100210 49
2010-09-07 06:24:51 51°13.701 2°55.752 0.1 28 14.2 100210 50
2010-09-07 06:24:56 51°13.704 2°55.753 0.1 53 14.2 100210 50
2010-09-07 06:25:00 51°13.707 2°55.753 0.1 28 14.2 100210 51
2010-09-07 06:25:05 51°13.71 2°55.753 0.1 59 14.2 100210 51
2010-09-07 06:25:10 51°13.715 2°55.752 0.2 22 14.2 100200 51
2010-09-07 06:25:16 51°13.72 2°55.747 0.1 309 14.2 100200 51
2010-09-07 06:25:20 51°13.724 2°55.744 -999 22 14.2 100210 51
2010-09-07 06:25:25 51°13.729 2°55.738 -999 306 14.2 100210 51
2010-09-07 06:25:30 51°13.734 2°55.732 -999 23 14.2 100210 51
2010-09-07 06:25:35 51°13.739 2°55.725 -999 306 14.2 100210 51
2010-09-07 06:25:40 51°13.744 2°55.717 0.1 27 14.2 100210 51
2010-09-07 06:25:45 51°13.751 2°55.709 0.1 305 14.2 100210 51
2010-09-07 06:25:50 51°13.758 2°55.701 0.1 20 14.2 100210 51
2010-09-07 06:25:55 51°13.764 2°55.692 0.1 306 14.2 100210 51
2010-09-07 06:26:00 51°13.772 2°55.684 0.7 24 14.2 100210 51
2010-09-07 06:26:04 51°13.778 2°55.677 0.1 306 14.2 100210 51
2010-09-07 06:26:09 51°13.787 2°55.668 0.1 24 14.2 100210 51
2010-09-07 06:26:14 51°13.795 2°55.659 -999 301 14.2 100210 51
2010-09-07 06:26:20 51°13.806 2°55.65 -999 318 14.2 100210 51
2010-09-07 06:26:24 51°13.814 2°55.644 0.1 309 14.2 100210 51
2010-09-07 06:26:29 51°13.824 2°55.637 0.1 22 14.2 100210 51
2010-09-07 06:26:34 51°13.834 2°55.629 0.1 306 14.2 100210 51
2010-09-07 06:26:39 51°13.844 2°55.622 -999 23 14.2 100210 51
2010-09-07 06:26:44 51°13.854 2°55.614 -999 306 14.2 100210 51
2010-09-07 06:26:49 51°13.865 2°55.606 0.6 316 14.2 100210 51
2010-09-07 06:26:54 51°13.876 2°55.598 1.7 302 14.2 100210 51
2010-09-07 06:26:59 51°13.887 2°55.59 0.8 321 14.2 100210 51
2010-09-07 06:27:04 51°13.898 2°55.582 1.7 306 14.2 100210 51
2010-09-07 06:27:09 51°13.909 2°55.574 1 21 14.2 100210 51
2010-09-07 06:27:14 51°13.92 2°55.566 0.6 308 14.2 100210 51
2010-09-07 06:27:19 51°13.932 2°55.557 0.6 324 14.2 100210 51
2010-09-07 06:27:24 51°13.944 2°55.549 0.8 309 14.2 100210 51
2010-09-07 06:27:28 51°13.953 2°55.543 0.2 325 14.2 100210 51
2010-09-07 06:27:33 51°13.965 2°55.535 0.9 309 14.2 100210 51
2010-09-07 06:27:38 51°13.977 2°55.526 0.6 320 14.2 100210 51
2010-09-07 06:27:44 51°13.991 2°55.515 1.5 325 14.2 100210 51
2010-09-07 06:27:48 51°14.001 2°55.508 1.6 320 14.3 100210 52
2010-09-07 06:27:54 51°14.015 2°55.497 1.8 308 14.3 100210 52
2010-09-07 06:27:58 51°14.025 2°55.49 2 321 14.2 100210 51
2010-09-07 06:28:04 51°14.04 2°55.479 1.9 308 14.2 100210 51
2010-09-07 06:28:08 51°14.049 2°55.472 1.6 321 14.2 100210 51
2010-09-07 06:28:14 51°14.064 2°55.461 1.3 306 14.2 100210 51
2010-09-07 06:28:19 51°14.076 2°55.451 1.2 23 14.2 100210 50
2010-09-07 06:28:24 51°14.088 2°55.441 2.2 307 14.2 100210 50
2010-09-07 06:28:28 51°14.098 2°55.433 1.9 23 14.2 100210 50
2010-09-07 06:28:33 51°14.111 2°55.424 1.1 301 14.2 100210 50
2010-09-07 06:28:38 51°14.124 2°55.416 0.5 323 14.3 100210 50
2010-09-07 06:28:44 51°14.139 2°55.406 0.7 325 14.3 100210 50
2010-09-07 06:28:48 51°14.149 2°55.399 1.4 327 14.3 100210 52
2010-09-07 06:28:53 51°14.161 2°55.39 1.3 307 14.3 100210 52
2010-09-07 06:28:58 51°14.173 2°55.379 0.3 22 14.3 100210 51
2010-09-07 06:29:04 51°14.188 2°55.367 0.1 331 14.3 100210 51
2010-09-07 06:29:08 51°14.198 2°55.359 0.1 318 14.3 100210 53
2010-09-07 06:29:13 51°14.21 2°55.35 2 304 14.3 100210 53
2010-09-07 06:29:18 51°14.223 2°55.34 2.8 318 14.3 100210 51
2010-09-07 06:29:24 51°14.237 2°55.327 1.7 305 14.3 100210 51
2010-09-07 06:29:28 51°14.247 2°55.318 1.1 315 14.3 100210 51
2010-09-07 06:29:32 51°14.256 2°55.309 1.1 301 14.3 100210 51
2010-09-07 06:29:38 51°14.271 2°55.296 1.7 22 14.3 100210 51
2010-09-07 06:29:44 51°14.285 2°55.282 2.2 307 14.3 100210 51
2010-09-07 06:29:48 51°14.295 2°55.271 2.6 24 14.3 100210 51
2010-09-07 06:29:54 51°14.31 2°55.255 1 305 14.3 100210 51
2010-09-07 06:29:58 51°14.32 2°55.246 1.7 323 14.3 100200 51
2010-09-07 06:30:04 51°14.334 2°55.232 1.5 307 14.3 100200 51
2010-09-07 06:30:08 51°14.344 2°55.223 2.6 319 14.3 100210 50
2010-09-07 06:30:14 51°14.358 2°55.209 1.8 306 14.3 100210 50
2010-09-07 06:30:19 51°14.371 2°55.197 1.8 27 14.3 100200 50
2010-09-07 06:30:24 51°14.383 2°55.185 2.5 309 14.3 100200 50
2010-09-07 06:30:28 51°14.393 2°55.175 2 21 14.3 100200 51
2010-09-07 06:30:33 51°14.406 2°55.163 2.1 303 14.3 100200 51
2010-09-07 06:30:38 51°14.419 2°55.151 1.7 27 14.3 100210 50
2010-09-07 06:30:44 51°14.435 2°55.136 0.2 302 14.3 100210 50
2010-09-07 06:30:48 51°14.446 2°55.125 1.7 324 14.3 100200 52
2010-09-07 06:30:53 51°14.459 2°55.111 3.5 305 14.3 100200 52
2010-09-07 06:30:58 51°14.472 2°55.097 2.8 319 14.3 100200 50
2010-09-07 06:31:04 51°14.489 2°55.08 2.3 303 14.3 100200 50
2010-09-07 06:31:08 51°14.5 2°55.067 2.8 27 14.3 100200 50
2010-09-07 06:31:13 51°14.514 2°55.052 3.3 307 14.3 100200 50
2010-09-07 06:31:18 51°14.529 2°55.036 2.8 23 14.3 100200 52
2010-09-07 06:31:24 51°14.545 2°55.016 4.5 306 14.3 100200 52
2010-09-07 06:31:28 51°14.556 2°55.001 4.2 22 14.3 100200 53
2010-09-07 06:31:33 51°14.57 2°54.982 4.2 305 14.3 100200 53
2010-09-07 06:31:38 51°14.584 2°54.964 4.2 242 14.3 100200 52
2010-09-07 06:31:43 51°14.598 2°54.946 4.5 307 14.3 100200 52
2010-09-07 06:31:48 51°14.613 2°54.929 5.1 27 14.3 100200 52
2010-09-07 06:31:53 51°14.627 2°54.911 4.3 302 14.3 100200 52
2010-09-07 06:31:58 51°14.642 2°54.893 3.4 22 14.3 100200 53
2010-09-07 06:32:03 51°14.656 2°54.876 4.5 308 14.3 100200 53
2010-09-07 06:32:08 51°14.671 2°54.858 3.8 23 14.3 100200 50
2010-09-07 06:32:13 51°14.686 2°54.841 3.7 306 14.3 100200 50
2010-09-07 06:32:18 51°14.701 2°54.824 4.4 21 14.4 100200 52
2010-09-07 06:32:23 51°14.715 2°54.806 4.1 283 14.4 100200 52
2010-09-07 06:32:28 51°14.729 2°54.788 4.9 20 14.4 100200 52
2010-09-07 06:32:33 51°14.743 2°54.769 4.2 307 14.4 100200 52
2010-09-07 06:32:38 51°14.758 2°54.751 4.4 27 14.3 100200 49
2010-09-07 06:32:44 51°14.774 2°54.729 4.3 309 14.3 100200 49
2010-09-07 06:32:48 51°14.786 2°54.714 3.9 22 14.4 100200 51
2010-09-07 06:32:54 51°14.802 2°54.692 4 301 14.4 100200 51
2010-09-07 06:33:00 51°14.82 2°54.67 4.3 27 14.4 100200 50
2010-09-07 06:33:04 51°14.831 2°54.656 4.3 306 14.4 100200 50
2010-09-07 06:33:09 51°14.845 2°54.637 4.3 20 14.4 100200 52
2010-09-07 06:33:16 51°14.865 2°54.611 3.8 307 14.4 100200 52
2010-09-07 06:33:20 51°14.877 2°54.596 4.2 27 14.4 100200 53
2010-09-07 06:33:27 51°14.897 2°54.57 4.1 305 14.4 100200 53
2010-09-07 06:33:32 51°14.91 2°54.552 4.6 19 14.4 100200 51
2010-09-07 06:33:36 51°14.922 2°54.537 4.2 302 14.4 100200 51
2010-09-07 06:33:41 51°14.936 2°54.519 4.1 27 14.4 100200 50
2010-09-07 06:33:47 51°14.952 2°54.498 4.3 305 14.4 100200 50
2010-09-07 06:33:52 51°14.966 2°54.479 3.8 21 14.4 100200 50
2010-09-07 06:33:56 51°14.977 2°54.464 4 306 14.4 100200 50
2010-09-07 06:34:01 51°14.99 2°54.446 4.1 22 14.4 100200 50
2010-09-07 06:34:06 51°15.004 2°54.427 3.6 302 14.4 100200 50
2010-09-07 06:34:12 51°15.02 2°54.405 3.4 29 14.4 100200 52
2010-09-07 06:34:16 51°15.031 2°54.39 4.6 302 14.4 100200 52
2010-09-07 06:34:21 51°15.045 2°54.374 4.6 23 14.4 100200 53
2010-09-07 06:34:26 51°15.059 2°54.356 5 280 14.4 100200 53
2010-09-07 06:34:31 51°15.074 2°54.339 5.1 243 14.4 100200 50
2010-09-07 06:34:36 51°15.088 2°54.321 4.1 308 14.4 100200 50
2010-09-07 06:34:41 51°15.102 2°54.305 4.4 22 14.4 100200 50
2010-09-07 06:34:46 51°15.117 2°54.287 4.2 307 14.4 100200 50
2010-09-07 06:34:51 51°15.131 2°54.27 4.5 21 14.5 100200 50
2010-09-07 06:34:56 51°15.146 2°54.253 4.8 308 14.5 100200 50
2010-09-07 06:35:00 51°15.158 2°54.24 3.8 23 14.5 100210 52
2010-09-07 06:35:06 51°15.175 2°54.219 4.7 304 14.5 100210 52
2010-09-07 06:35:10 51°15.186 2°54.204 4.3 25 14.5 100200 51
2010-09-07 06:35:16 51°15.204 2°54.183 4.3 304 14.5 100200 51
2010-09-07 06:35:20 51°15.216 2°54.169 3.6 22 14.5 100200 51
2010-09-07 06:35:25 51°15.23 2°54.152 4.3 281 14.5 100200 51
2010-09-07 06:35:30 51°15.245 2°54.134 3.8 23 14.5 100200 52
2010-09-07 06:35:35 51°15.259 2°54.116 4.3 307 14.5 100200 52
2010-09-07 06:35:40 51°15.273 2°54.098 4.8 23 14.5 100200 53
2010-09-07 06:35:45 51°15.288 2°54.08 4.5 309 14.5 100200 53
2010-09-07 06:35:50 51°15.302 2°54.062 4.1 25 14.5 100210 50
2010-09-07 06:35:55 51°15.317 2°54.045 5 309 14.5 100210 50
2010-09-07 06:36:00 51°15.331 2°54.027 4.5 252 14.5 100210 52
2010-09-07 06:36:05 51°15.346 2°54.009 4.4 308 14.5 100210 52
2010-09-07 06:36:10 51°15.36 2°53.991 3.7 25 14.6 100200 53
2010-09-07 06:36:15 51°15.375 2°53.973 5 301 14.6 100200 53
2010-09-07 06:36:20 51°15.389 2°53.956 4.2 23 14.6 100200 51
2010-09-07 06:36:24 51°15.401 2°53.941 4.6 280 14.6 100200 51
2010-09-07 06:36:29 51°15.415 2°53.923 4.6 20 14.6 100210 53
2010-09-07 06:36:35 51°15.432 2°53.901 5.2 306 14.6 100210 53
2010-09-07 06:36:39 51°15.444 2°53.887 4.8 21 14.6 100200 53
2010-09-07 06:36:44 51°15.458 2°53.868 5.2 303 14.6 100200 53
2010-09-07 06:36:49 51°15.473 2°53.85 5 21 14.6 100200 51
2010-09-07 06:36:54 51°15.487 2°53.832 5.3 305 14.6 100200 51
2010-09-07 06:36:59 51°15.501 2°53.814 5.4 26 14.6 100200 51
2010-09-07 06:37:04 51°15.516 2°53.795 5.1 307 14.6 100200 51
2010-09-07 06:37:09 51°15.53 2°53.777 5.4 23 14.6 100210 52
2010-09-07 06:37:14 51°15.544 2°53.758 4.4 309 14.6 100210 52
2010-09-07 06:37:19 51°15.559 2°53.741 4.2 22 14.6 100200 50
2010-09-07 06:37:24 51°15.573 2°53.722 4.9 285 14.6 100200 50
2010-09-07 06:37:28 51°15.585 2°53.708 4.7 23 14.6 100210 51
2010-09-07 06:37:33 51°15.599 2°53.69 4.4 301 14.6 100210 51
2010-09-07 06:37:39 51°15.617 2°53.669 4.4 22 14.6 100200 53
2010-09-07 06:37:44 51°15.631 2°53.652 5.2 306 14.6 100200 53
2010-09-07 06:37:48 51°15.643 2°53.639 4.2 243 14.6 100200 53
2010-09-07 06:37:53 51°15.658 2°53.622 4.9 307 14.6 100200 53
2010-09-07 06:37:58 51°15.673 2°53.606 5.2 245 14.7 100210 52
2010-09-07 06:38:04 51°15.691 2°53.586 5.7 302 14.7 100210 52
2010-09-07 06:38:08 51°15.704 2°53.573 5.1 21 14.7 100210 51
2010-09-07 06:38:13 51°15.719 2°53.557 5.3 303 14.7 100210 51
2010-09-07 06:38:18 51°15.734 2°53.541 4.5 23 14.7 100200 53
2010-09-07 06:38:23 51°15.749 2°53.526 5.1 285 14.7 100200 53
2010-09-07 06:38:28 51°15.764 2°53.51 4.8 20 14.7 100200 53
2010-09-07 06:38:33 51°15.78 2°53.495 4.5 308 14.7 100200 53
2010-09-07 06:38:38 51°15.795 2°53.479 4.5 20 14.7 100210 51
2010-09-07 06:38:43 51°15.81 2°53.463 4.6 303 14.7 100210 51
2010-09-07 06:38:48 51°15.825 2°53.447 4.3 247 14.7 100210 52
2010-09-07 06:38:53 51°15.84 2°53.431 4.6 306 14.7 100210 52
2010-09-07 06:38:58 51°15.855 2°53.415 4.1 23 14.7 100200 50
2010-09-07 06:39:03 51°15.87 2°53.399 4.6 308 14.7 100200 50
2010-09-07 06:39:08 51°15.885 2°53.382 4.4 246 14.7 100210 50
2010-09-07 06:39:13 51°15.9 2°53.366 4 304 14.7 100210 50
2010-09-07 06:39:18 51°15.915 2°53.35 4 248 14.7 100200 53
2010-09-07 06:39:24 51°15.933 2°53.331 3.7 281 14.7 100200 53
2010-09-07 06:39:28 51°15.944 2°53.317 4.6 23 14.7 100210 51
2010-09-07 06:39:33 51°15.959 2°53.301 5.5 307 14.7 100210 51
2010-09-07 06:39:38 51°15.974 2°53.285 3.6 247 14.7 100210 50
2010-09-07 06:39:44 51°15.992 2°53.265 4.2 305 14.7 100210 50
2010-09-07 06:39:48 51°16.004 2°53.252 4.2 249 14.7 100210 51
2010-09-07 06:39:53 51°16.019 2°53.236 4.5 302 14.7 100210 51
2010-09-07 06:39:58 51°16.033 2°53.219 4.3 246 14.7 100200 50
2010-09-07 06:40:04 51°16.05 2°53.199 4.5 307 14.7 100200 50
2010-09-07 06:40:08 51°16.062 2°53.185 4.4 22 14.7 100210 50
2010-09-07 06:40:13 51°16.077 2°53.168 4.3 307 14.7 100210 50
2010-09-07 06:40:18 51°16.092 2°53.152 4 21 14.7 100210 52
2010-09-07 06:40:23 51°16.107 2°53.136 4.4 284 14.7 100210 52
2010-09-07 06:40:28 51°16.122 2°53.121 4.5 254 14.7 100210 50
2010-09-07 06:40:33 51°16.137 2°53.105 4.4 302 14.7 100210 50
2010-09-07 06:40:38 51°16.151 2°53.09 4.5 244 14.7 100210 51
2010-09-07 06:40:43 51°16.166 2°53.075 5 306 14.7 100210 51
2010-09-07 06:40:48 51°16.181 2°53.059 5 23 14.7 100210 52
2010-09-07 06:40:52 51°16.193 2°53.047 5.5 303 14.7 100210 52
2010-09-07 06:40:58 51°16.211 2°53.028 5.3 249 14.7 100210 51
2010-09-07 06:41:04 51°16.229 2°53.01 5.9 306 14.7 100210 51
2010-09-07 06:41:08 51°16.241 2°52.997 5.2 246 14.7 100210 50
2010-09-07 06:41:14 51°16.259 2°52.978 5.5 308 14.7 100210 50
2010-09-07 06:41:18 51°16.271 2°52.966 5.4 21 14.8 100210 53
2010-09-07 06:41:24 51°16.289 2°52.947 4.4 285 14.8 100210 53
2010-09-07 06:41:28 51°16.301 2°52.935 5.1 21 14.8 100210 51
2010-09-07 06:41:33 51°16.316 2°52.92 4.8 307 14.8 100210 51
2010-09-07 06:41:38 51°16.331 2°52.904 4.1 249 14.8 100210 50
2010-09-07 06:41:44 51°16.349 2°52.888 5.1 307 14.8 100210 50
2010-09-07 06:41:48 51°16.362 2°52.876 4.2 246 14.8 100210 53
2010-09-07 06:41:53 51°16.377 2°52.863 5 307 14.8 100210 53
2010-09-07 06:41:58 51°16.393 2°52.85 4.8 21 14.8 100210 53
2010-09-07 06:42:04 51°16.412 2°52.835 4.1 307 14.8 100210 53
2010-09-07 06:42:08 51°16.425 2°52.825 3.8 24 14.8 100210 51
2010-09-07 06:42:13 51°16.44 2°52.813 3.3 302 14.8 100210 51
2010-09-07 06:42:18 51°16.457 2°52.8 3.4 250 14.8 100210 52
2010-09-07 06:42:24 51°16.476 2°52.786 3.8 285 14.8 100210 52
2010-09-07 06:42:28 51°16.488 2°52.776 3.8 22 14.8 100210 50
2010-09-07 06:42:33 51°16.504 2°52.764 3.6 307 14.8 100210 50
2010-09-07 06:42:38 51°16.52 2°52.752 4.4 254 14.8 100210 53
2010-09-07 06:42:44 51°16.539 2°52.738 4.2 302 14.8 100210 53
2010-09-07 06:42:48 51°16.552 2°52.728 4 257 14.8 100210 53
2010-09-07 06:42:53 51°16.568 2°52.716 3.9 304 14.8 100210 53
2010-09-07 06:42:58 51°16.584 2°52.703 3.8 250 14.8 100210 52
2010-09-07 06:43:03 51°16.599 2°52.692 4.3 305 14.8 100210 52
2010-09-07 06:43:08 51°16.615 2°52.679 4.1 23 14.8 100210 50
2010-09-07 06:43:13 51°16.631 2°52.667 3.7 303 14.8 100210 50
2010-09-07 06:43:18 51°16.647 2°52.655 3.7 25 14.8 100220 49
2010-09-07 06:43:23 51°16.662 2°52.642 5.1 284 14.8 100220 49
2010-09-07 06:43:28 51°16.678 2°52.63 5 255 14.8 100210 53
2010-09-07 06:43:33 51°16.694 2°52.618 3.7 301 14.8 100210 53
2010-09-07 06:43:38 51°16.709 2°52.606 3.3 247 14.8 100210 53
2010-09-07 06:43:44 51°16.728 2°52.592 4 301 14.8 100210 53
2010-09-07 06:43:48 51°16.741 2°52.582 4 22 14.8 100210 52
2010-09-07 06:43:53 51°16.756 2°52.57 4.4 307 14.8 100210 52
2010-09-07 06:43:58 51°16.771 2°52.558 4.5 255 14.8 100220 52
2010-09-07 06:44:04 51°16.789 2°52.543 4.2 306 14.8 100220 52
2010-09-07 06:44:08 51°16.802 2°52.533 4.6 251 14.8 100210 51
2010-09-07 06:44:13 51°16.817 2°52.52 4.3 306 14.8 100210 51
2010-09-07 06:44:18 51°16.833 2°52.508 4.8 252 14.8 100220 51
2010-09-07 06:44:24 51°16.851 2°52.494 5.2 282 14.8 100220 51
2010-09-07 06:44:28 51°16.863 2°52.483 4.7 20 14.8 100220 51
2010-09-07 06:44:33 51°16.878 2°52.471 5 309 14.8 100220 51
2010-09-07 06:44:38 51°16.893 2°52.459 5.5 250 14.8 100220 52
2010-09-07 06:44:44 51°16.912 2°52.444 5.7 306 14.8 100220 52
2010-09-07 06:44:48 51°16.924 2°52.434 5 251 14.8 100220 53
2010-09-07 06:44:53 51°16.939 2°52.421 4.6 305 14.8 100220 53
2010-09-07 06:44:58 51°16.954 2°52.408 5 256 14.8 100210 51
2010-09-07 06:45:03 51°16.969 2°52.395 5.1 309 14.8 100210 51
2010-09-07 06:45:08 51°16.984 2°52.382 4.9 251 14.8 100220 50
2010-09-07 06:45:13 51°16.999 2°52.369 5.3 305 14.8 100220 50
2010-09-07 06:45:18 51°17.014 2°52.356 4.9 253 14.8 100220 51
2010-09-07 06:45:23 51°17.029 2°52.343 5 279 14.8 100220 51
2010-09-07 06:45:28 51°17.044 2°52.329 5.1 251 14.8 100220 50
2010-09-07 06:45:33 51°17.059 2°52.316 4.5 308 14.8 100220 50
2010-09-07 06:45:38 51°17.074 2°52.303 5 251 14.8 100220 51
2010-09-07 06:45:44 51°17.093 2°52.286 4.2 302 14.8 100220 51
2010-09-07 06:45:48 51°17.104 2°52.275 4 22 14.8 100210 53
2010-09-07 06:45:53 51°17.12 2°52.262 5.1 309 14.8 100210 53
2010-09-07 06:45:58 51°17.135 2°52.249 4.4 249 14.8 100210 49
2010-09-07 06:46:04 51°17.153 2°52.233 4.4 306 14.8 100210 49
2010-09-07 06:46:08 51°17.166 2°52.223 4.1 249 14.8 100210 51
2010-09-07 06:46:13 51°17.181 2°52.21 4.6 300 14.8 100210 51
2010-09-07 06:46:18 51°17.197 2°52.197 4.2 244 14.8 100220 50
2010-09-07 06:46:24 51°17.216 2°52.183 4 306 14.8 100220 50
2010-09-07 06:46:28 51°17.228 2°52.173 4.1 19 14.8 100210 51
2010-09-07 06:46:33 51°17.244 2°52.161 4.4 304 14.8 100210 51
2010-09-07 06:46:38 51°17.26 2°52.149 4.5 248 14.9 100210 50
2010-09-07 06:46:44 51°17.279 2°52.135 5.2 306 14.9 100210 50
2010-09-07 06:46:48 51°17.292 2°52.126 5.6 21 14.8 100210 51
2010-09-07 06:46:53 51°17.307 2°52.115 5.7 309 14.8 100210 51
2010-09-07 06:46:58 51°17.324 2°52.103 5.5 255 14.9 100210 53
2010-09-07 06:47:04 51°17.342 2°52.089 4.6 304 14.9 100210 53
2010-09-07 06:47:08 51°17.355 2°52.079 4.2 248 14.9 100220 51
2010-09-07 06:47:13 51°17.37 2°52.068 4.2 303 14.9 100220 51
2010-09-07 06:47:18 51°17.386 2°52.056 5.2 251 14.9 100210 51
2010-09-07 06:47:24 51°17.405 2°52.043 4.1 284 14.9 100210 51
2010-09-07 06:47:28 51°17.417 2°52.033 4.5 249 14.9 100220 51
2010-09-07 06:47:33 51°17.433 2°52.022 5.2 309 14.9 100220 51
2010-09-07 06:47:38 51°17.448 2°52.01 4.9 255 14.9 100220 51
2010-09-07 06:47:43 51°17.463 2°51.998 4.2 309 14.9 100220 51
2010-09-07 06:47:48 51°17.479 2°51.986 4 250 14.9 100220 52
2010-09-07 06:47:52 51°17.491 2°51.977 4.4 307 14.9 100220 52
2010-09-07 06:47:58 51°17.509 2°51.962 4.2 252 14.9 100210 50
2010-09-07 06:48:04 51°17.528 2°51.948 4.4 306 14.9 100210 50
2010-09-07 06:48:08 51°17.54 2°51.939 3.9 20 14.9 100210 52
2010-09-07 06:48:14 51°17.559 2°51.925 5 306 14.9 100210 52
2010-09-07 06:48:19 51°17.575 2°51.913 4.3 252 14.9 100220 53
2010-09-07 06:48:24 51°17.59 2°51.901 4.9 280 14.9 100220 53
2010-09-07 06:48:28 51°17.603 2°51.892 4.9 254 14.9 100210 51
2010-09-07 06:48:33 51°17.618 2°51.879 4.2 307 14.9 100210 51
2010-09-07 06:48:38 51°17.634 2°51.868 4.2 248 14.9 100220 49
2010-09-07 06:48:44 51°17.652 2°51.853 4.9 308 14.9 100220 49
2010-09-07 06:48:48 51°17.664 2°51.843 4.6 19 14.9 100210 50
2010-09-07 06:48:53 51°17.68 2°51.832 4.1 302 14.9 100210 50
2010-09-07 06:48:58 51°17.695 2°51.819 4 250 14.9 100210 53
2010-09-07 06:49:04 51°17.714 2°51.804 3.9 306 14.9 100210 53
2010-09-07 06:49:08 51°17.726 2°51.795 3.8 20 14.9 100220 51
2010-09-07 06:49:13 51°17.742 2°51.783 4.3 307 14.9 100220 51
2010-09-07 06:49:18 51°17.757 2°51.772 4.8 20 14.9 100220 50
2010-09-07 06:49:24 51°17.776 2°51.757 4.4 306 14.9 100220 50
2010-09-07 06:49:28 51°17.789 2°51.747 4.4 24 14.9 100220 51
2010-09-07 06:49:33 51°17.804 2°51.735 4.2 301 14.9 100220 51
2010-09-07 06:49:38 51°17.82 2°51.723 4.3 247 14.9 100220 51
2010-09-07 06:49:43 51°17.835 2°51.711 4.3 303 14.9 100220 51
2010-09-07 06:49:48 51°17.851 2°51.699 4.1 250 14.9 100220 51
2010-09-07 06:49:53 51°17.867 2°51.687 4.1 308 14.9 100220 51
2010-09-07 06:49:58 51°17.883 2°51.675 4.3 252 14.9 100220 51
2010-09-07 06:50:03 51°17.898 2°51.662 3.8 301 14.9 100220 51
2010-09-07 06:50:08 51°17.914 2°51.651 4.2 22 14.9 100220 50
2010-09-07 06:50:13 51°17.93 2°51.638 4.2 307 14.9 100220 50
2010-09-07 06:50:18 51°17.946 2°51.626 4.4 251 15 100220 51
2010-09-07 06:50:23 51°17.961 2°51.614 3.9 305 15 100220 51
2010-09-07 06:50:28 51°17.977 2°51.601 4.5 254 15 100220 50
2010-09-07 06:50:33 51°17.993 2°51.589 4.5 306 15 100220 50
2010-09-07 06:50:38 51°18.009 2°51.577 4.8 256 15 100220 52
2010-09-07 06:50:43 51°18.024 2°51.564 4.2 309 15 100220 52
2010-09-07 06:50:48 51°18.04 2°51.552 3.7 22 15 100220 51
2010-09-07 06:50:53 51°18.056 2°51.539 4.3 305 15 100220 51
2010-09-07 06:50:58 51°18.072 2°51.527 4.6 246 15 100220 51
2010-09-07 06:51:04 51°18.091 2°51.512 4.7 302 15 100220 51
2010-09-07 06:51:08 51°18.104 2°51.502 4.5 24 15 100220 52
2010-09-07 06:51:13 51°18.12 2°51.489 4.9 303 15 100220 52
2010-09-07 06:51:18 51°18.136 2°51.477 5 250 15 100220 50
2010-09-07 06:51:24 51°18.155 2°51.462 5.3 278 15 100220 50
2010-09-07 06:51:28 51°18.167 2°51.451 5.4 245 15 100220 51
2010-09-07 06:51:33 51°18.183 2°51.438 4.8 302 15 100220 51
2010-09-07 06:51:38 51°18.199 2°51.425 4.4 22 15 100210 53
2010-09-07 06:51:44 51°18.217 2°51.41 4.4 306 15 100210 53
2010-09-07 06:51:48 51°18.23 2°51.398 5.6 249 15 100220 52
2010-09-07 06:51:53 51°18.245 2°51.384 4.7 307 15 100220 52
2010-09-07 06:51:58 51°18.261 2°51.37 5.1 244 15 100210 51
2010-09-07 06:52:03 51°18.276 2°51.356 5.6 305 15 100210 51
2010-09-07 06:52:08 51°18.291 2°51.34 5.4 22 15.1 100210 51
2010-09-07 06:52:13 51°18.305 2°51.325 5.5 306 15.1 100210 51
2010-09-07 06:52:18 51°18.32 2°51.308 5.4 248 15.1 100210 50
2010-09-07 06:52:23 51°18.333 2°51.291 5.8 308 15.1 100210 50
2010-09-07 06:52:28 51°18.348 2°51.275 5.6 249 15.1 100220 53
2010-09-07 06:52:33 51°18.361 2°51.26 5.6 310 15.1 100220 53
2010-09-07 06:52:38 51°18.374 2°51.245 6.2 249 15.1 100210 52
2010-09-07 06:52:43 51°18.387 2°51.23 5.9 307 15.1 100210 52
2010-09-07 06:52:48 51°18.399 2°51.216 5.3 21 15.1 100210 53
2010-09-07 06:52:53 51°18.411 2°51.202 5.1 306 15.1 100210 53
2010-09-07 06:52:58 51°18.423 2°51.189 6.5 254 15 100210 52
2010-09-07 06:53:03 51°18.433 2°51.176 5.2 308 15 100210 52
2010-09-07 06:53:08 51°18.442 2°51.164 5.7 256 15.1 100220 53
2010-09-07 06:53:13 51°18.451 2°51.153 5.9 303 15.1 100220 53
2010-09-07 06:53:18 51°18.46 2°51.143 5.8 259 15.1 100210 52
2010-09-07 06:53:23 51°18.468 2°51.134 4.1 285 15.1 100210 52
2010-09-07 06:53:28 51°18.475 2°51.124 4 265 15.1 100220 51
2010-09-07 06:53:33 51°18.482 2°51.115 3.4 308 15.1 100220 51
2010-09-07 06:53:38 51°18.488 2°51.107 4.8 270 15.1 100220 53
2010-09-07 06:53:44 51°18.496 2°51.098 4.6 302 15.1 100220 53
2010-09-07 06:53:48 51°18.501 2°51.093 4.7 25 15.1 100220 51
2010-09-07 06:53:53 51°18.506 2°51.086 4.3 303 15.1 100220 51
2010-09-07 06:53:58 51°18.511 2°51.08 5.5 30 15.1 100220 50
2010-09-07 06:54:04 51°18.516 2°51.073 5.1 55 15.1 100220 50
2010-09-07 06:54:08 51°18.519 2°51.069 4.4 270 15.1 100220 52
2010-09-07 06:54:13 51°18.523 2°51.063 4.2 307 15.1 100220 52
2010-09-07 06:54:18 51°18.526 2°51.057 4.2 268 15.1 100220 53
2010-09-07 06:54:23 51°18.529 2°51.051 4.4 301 15.1 100220 53
2010-09-07 06:54:28 51°18.531 2°51.045 4.4 266 15.1 100220 53
2010-09-07 06:54:33 51°18.533 2°51.039 4 309 15.1 100220 53
2010-09-07 06:54:38 51°18.534 2°51.033 4.2 263 15.1 100220 50
2010-09-07 06:54:43 51°18.535 2°51.027 4.9 307 15.1 100220 50
2010-09-07 06:54:48 51°18.535 2°51.022 4.1 265 15.1 100210 53
2010-09-07 06:54:53 51°18.536 2°51.018 6.1 305 15.1 100210 53
2010-09-07 06:54:58 51°18.536 2°51.014 5.7 262 15.1 100220 50
2010-09-07 06:55:03 51°18.535 2°51.01 5.4 303 15.1 100220 50
2010-09-07 06:55:08 51°18.535 2°51.007 8.1 259 15.1 100210 50
2010-09-07 06:55:13 51°18.534 2°51.004 5.9 307 15.1 100210 50
2010-09-07 06:55:18 51°18.533 2°51.001 6.3 260 15.1 100210 52
2010-09-07 06:55:23 51°18.532 2°51 5.3 279 15.1 100210 52
2010-09-07 06:55:28 51°18.531 2°50.998 5.1 264 15.1 100210 51
2010-09-07 06:55:33 51°18.529 2°50.997 6.3 307 15.1 100210 51
2010-09-07 06:55:38 51°18.528 2°50.995 4.9 262 15.1 100210 51
2010-09-07 06:55:44 51°18.527 2°50.993 7.5 308 15.1 100210 51
2010-09-07 06:55:48 51°18.526 2°50.992 6.7 258 15.1 100200 53
2010-09-07 06:55:53 51°18.525 2°50.991 5.4 305 15.1 100200 53
2010-09-07 06:55:58 51°18.524 2°50.989 7.2 261 15.1 100210 51
2010-09-07 06:56:04 51°18.523 2°50.987 7.7 307 15.1 100210 51
2010-09-07 06:56:08 51°18.523 2°50.986 6.2 261 15.1 100200 52
2010-09-07 06:56:13 51°18.522 2°50.985 4.6 308 15.1 100200 52
2010-09-07 06:56:18 51°18.521 2°50.983 5.2 262 15.2 100210 52
2010-09-07 06:56:23 51°18.52 2°50.981 4.6 300 15.2 100210 52
2010-09-07 06:56:28 51°18.519 2°50.98 5 262 15.1 100210 51
2010-09-07 06:56:33 51°18.518 2°50.978 4.1 303 15.1 100210 51
2010-09-07 06:56:39 51°18.517 2°50.976 4.6 265 15.2 100200 49
2010-09-07 06:56:44 51°18.516 2°50.974 5.4 306 15.2 100200 49
2010-09-07 06:56:48 51°18.516 2°50.973 5.2 262 15.1 100210 53
2010-09-07 06:56:54 51°18.515 2°50.971 5.4 303 15.1 100210 53
2010-09-07 06:56:59 51°18.514 2°50.97 4.3 262 15.1 100210 51
2010-09-07 06:57:04 51°18.513 2°50.968 3.9 308 15.1 100210 51
2010-09-07 06:57:08 51°18.512 2°50.967 4.8 262 15.1 100200 53
2010-09-07 06:57:14 51°18.511 2°50.964 3.8 309 15.1 100200 53
2010-09-07 06:57:19 51°18.511 2°50.963 4.7 261 15.1 100210 52
2010-09-07 06:57:24 51°18.51 2°50.961 3.9 301 15.1 100210 52
2010-09-07 06:57:28 51°18.509 2°50.96 4.5 265 15.2 100210 53
2010-09-07 06:57:33 51°18.509 2°50.958 3.5 307 15.2 100210 53
2010-09-07 06:57:38 51°18.508 2°50.957 4.4 268 15.2 100210 53
2010-09-07 06:57:44 51°18.507 2°50.955 4.3 302 15.2 100210 53
2010-09-07 06:57:48 51°18.506 2°50.954 4.4 268 15.2 100210 51
2010-09-07 06:57:53 51°18.505 2°50.951 5.7 306 15.2 100210 51
2010-09-07 06:57:58 51°18.504 2°50.95 5.5 266 15.2 100210 51
2010-09-07 06:58:04 51°18.503 2°50.948 5.3 306 15.2 100210 51
2010-09-07 06:58:08 51°18.503 2°50.946 5.8 270 15.3 100210 53
2010-09-07 06:58:13 51°18.502 2°50.945 5.9 301 15.3 100210 53
2010-09-07 06:58:18 51°18.501 2°50.943 5.8 268 15.2 100210 51
2010-09-07 06:58:24 51°18.5 2°50.941 5.6 302 15.2 100210 51
2010-09-07 06:58:28 51°18.5 2°50.939 7.2 269 15.2 100210 51
2010-09-07 06:58:33 51°18.499 2°50.937 6 304 15.2 100210 51
2010-09-07 06:58:38 51°18.498 2°50.935 6.1 252 15.2 100200 53
2010-09-07 06:58:43 51°18.497 2°50.933 5.5 54 15.2 100200 53
2010-09-07 06:58:48 51°18.496 2°50.931 5.8 13 15.2 100200 51
2010-09-07 06:58:53 51°18.496 2°50.929 6.1 307 15.2 100200 51
2010-09-07 06:58:58 51°18.495 2°50.928 6.2 22 15.2 100210 51
2010-09-07 06:59:04 51°18.494 2°50.925 6.5 302 15.2 100210 51
2010-09-07 06:59:08 51°18.493 2°50.924 6 269 15.2 100210 49
2010-09-07 06:59:13 51°18.493 2°50.922 5.9 310 15.2 100210 49
2010-09-07 06:59:18 51°18.492 2°50.92 5.5 266 15.2 100200 51
2010-09-07 06:59:23 51°18.491 2°50.918 6.1 284 15.2 100200 51
2010-09-07 06:59:28 51°18.49 2°50.916 5.6 268 15.2 100200 51
2010-09-07 06:59:33 51°18.49 2°50.914 6.2 302 15.2 100200 51
2010-09-07 06:59:38 51°18.489 2°50.912 6.6 11 15.2 100200 53
2010-09-07 06:59:44 51°18.488 2°50.91 5.8 59 15.2 100200 53
2010-09-07 06:59:48 51°18.487 2°50.908 6.1 270 15.2 100200 51
2010-09-07 06:59:53 51°18.487 2°50.907 5.9 305 15.2 100200 51
2010-09-07 06:59:58 51°18.486 2°50.904 5.6 270 15.2 100200 51
2010-09-07 07:00:04 51°18.485 2°50.902 5.9 312 15.2 100200 51
2010-09-07 07:00:08 51°18.485 2°50.901 6.2 268 15.2 100200 52
2010-09-07 07:00:13 51°18.484 2°50.899 5.7 305 15.2 100200 52
2010-09-07 07:00:18 51°18.484 2°50.897 5.8 270 15.2 100200 52
2010-09-07 07:00:23 51°18.483 2°50.895 6 308 15.2 100200 52
2010-09-07 07:00:28 51°18.482 2°50.893 4.9 266 15.2 100200 50
2010-09-07 07:00:33 51°18.481 2°50.891 4.1 307 15.2 100200 50
2010-09-07 07:00:38 51°18.48 2°50.889 4.6 266 15.2 100200 53
2010-09-07 07:00:44 51°18.48 2°50.886 4.4 304 15.2 100200 53
2010-09-07 07:00:48 51°18.479 2°50.885 4.4 269 15.2 100200 52
2010-09-07 07:00:53 51°18.478 2°50.882 4 307 15.2 100200 52
2010-09-07 07:00:58 51°18.477 2°50.88 4.6 270 15.2 100210 51
2010-09-07 07:01:04 51°18.476 2°50.878 5 306 15.2 100210 51
2010-09-07 07:01:08 51°18.476 2°50.876 6.2 270 15.2 100200 51
2010-09-07 07:01:13 51°18.475 2°50.874 5.5 308 15.2 100200 51
2010-09-07 07:01:18 51°18.475 2°50.872 6.6 268 15.3 100200 52
2010-09-07 07:01:23 51°18.474 2°50.87 5.8 285 15.3 100200 52
2010-09-07 07:01:28 51°18.473 2°50.868 5.7 265 15.3 100200 52
2010-09-07 07:01:33 51°18.472 2°50.866 5 307 15.3 100200 52
2010-09-07 07:01:38 51°18.472 2°50.864 5.7 268 15.3 100210 51
2010-09-07 07:01:44 51°18.471 2°50.862 4.7 309 15.3 100210 51
2010-09-07 07:01:48 51°18.47 2°50.86 5.2 267 15.2 100200 52
2010-09-07 07:01:53 51°18.47 2°50.858 4.2 307 15.2 100200 52
2010-09-07 07:01:58 51°18.47 2°50.857 4.1 264 15.2 100200 50
2010-09-07 07:02:04 51°18.469 2°50.854 5.4 308 15.2 100200 50
2010-09-07 07:02:08 51°18.468 2°50.852 4 266 15.2 100210 50
2010-09-07 07:02:12 51°18.468 2°50.85 4.8 305 15.2 100210 50
2010-09-07 07:02:18 51°18.467 2°50.848 4.4 264 15.2 100210 50
2010-09-07 07:02:24 51°18.465 2°50.845 5 306 15.2 100210 50
2010-09-07 07:02:28 51°18.465 2°50.843 4.1 264 15.2 100210 51
2010-09-07 07:02:33 51°18.465 2°50.842 4.6 309 15.2 100210 51
2010-09-07 07:02:38 51°18.464 2°50.84 5.1 270 15.2 100210 53
2010-09-07 07:02:44 51°18.464 2°50.838 5.1 308 15.2 100210 53
2010-09-07 07:02:48 51°18.463 2°50.835 4 267 15.2 100220 53
2010-09-07 07:02:53 51°18.462 2°50.833 4.1 309 15.2 100220 53
2010-09-07 07:02:58 51°18.461 2°50.831 4.1 265 15.2 100210 53
2010-09-07 07:03:04 51°18.46 2°50.828 4 303 15.2 100210 53
2010-09-07 07:03:08 51°18.46 2°50.827 4.5 265 15.2 100210 52
2010-09-07 07:03:13 51°18.459 2°50.824 6.1 307 15.2 100210 52
2010-09-07 07:03:18 51°18.458 2°50.822 4.8 263 15.2 100220 53
2010-09-07 07:03:24 51°18.457 2°50.819 5.1 283 15.2 100220 53
2010-09-07 07:03:28 51°18.456 2°50.818 4.3 263 15.2 100210 51
2010-09-07 07:03:33 51°18.456 2°50.815 5.1 307 15.2 100210 51
2010-09-07 07:03:38 51°18.455 2°50.813 5.1 263 15.2 100220 51
2010-09-07 07:03:44 51°18.455 2°50.811 5 303 15.2 100220 51
2010-09-07 07:03:48 51°18.454 2°50.809 4.4 264 15.2 100210 53
2010-09-07 07:03:53 51°18.454 2°50.807 4.8 308 15.2 100210 53
2010-09-07 07:03:58 51°18.453 2°50.805 5.3 268 15.2 100220 52
2010-09-07 07:04:04 51°18.452 2°50.802 5.4 304 15.2 100220 52
2010-09-07 07:04:08 51°18.452 2°50.801 3.7 263 15.2 100210 51
2010-09-07 07:04:13 51°18.451 2°50.799 3.9 308 15.2 100210 51
2010-09-07 07:04:18 51°18.45 2°50.796 3.7 268 15.2 100220 50
2010-09-07 07:04:24 51°18.449 2°50.794 4.2 308 15.2 100220 50
2010-09-07 07:04:28 51°18.449 2°50.792 5.2 264 15.3 100210 52
2010-09-07 07:04:33 51°18.448 2°50.79 3.9 301 15.3 100210 52
2010-09-07 07:04:38 51°18.447 2°50.788 4.1 265 15.3 100220 51
2010-09-07 07:04:43 51°18.447 2°50.786 4.4 302 15.3 100220 51
2010-09-07 07:04:48 51°18.446 2°50.783 4.9 265 15.3 100210 51
2010-09-07 07:04:53 51°18.445 2°50.781 4 303 15.3 100210 51
2010-09-07 07:04:58 51°18.445 2°50.779 4.3 264 15.3 100210 51
2010-09-07 07:05:04 51°18.444 2°50.777 3.9 309 15.3 100210 51
2010-09-07 07:05:08 51°18.444 2°50.775 4.9 263 15.3 100210 51
2010-09-07 07:05:13 51°18.443 2°50.773 3.7 303 15.3 100210 51
2010-09-07 07:05:18 51°18.443 2°50.77 3.4 263 15.3 100200 53
2010-09-07 07:05:24 51°18.442 2°50.768 3.6 283 15.3 100200 53
2010-09-07 07:05:28 51°18.441 2°50.766 3.6 265 15.3 100210 51
2010-09-07 07:05:33 51°18.44 2°50.763 3.5 305 15.3 100210 51
2010-09-07 07:05:38 51°18.44 2°50.761 4.9 262 15.3 100220 53
2010-09-07 07:05:43 51°18.439 2°50.759 4.4 307 15.3 100220 53
2010-09-07 07:05:48 51°18.438 2°50.756 3.9 265 15.3 100210 51
2010-09-07 07:05:53 51°18.438 2°50.754 4.6 307 15.3 100210 51
2010-09-07 07:05:58 51°18.437 2°50.752 4.5 266 15.3 100210 51
2010-09-07 07:06:04 51°18.436 2°50.749 5.2 304 15.3 100210 51
2010-09-07 07:06:08 51°18.436 2°50.747 4.4 266 15.3 100220 51
2010-09-07 07:06:13 51°18.435 2°50.745 5.3 305 15.3 100220 51
2010-09-07 07:06:18 51°18.434 2°50.742 4.1 264 15.3 100210 53
2010-09-07 07:06:24 51°18.434 2°50.74 4.8 301 15.3 100210 53
2010-09-07 07:06:28 51°18.433 2°50.738 4.3 264 15.3 100210 53
2010-09-07 07:06:33 51°18.432 2°50.736 4.2 304 15.3 100210 53
2010-09-07 07:06:38 51°18.432 2°50.733 3.9 264 15.3 100220 51
2010-09-07 07:06:43 51°18.431 2°50.731 3.8 309 15.3 100220 51
2010-09-07 07:06:48 51°18.431 2°50.729 3.9 263 15.3 100210 51
2010-09-07 07:06:53 51°18.43 2°50.726 3.6 308 15.3 100210 51
2010-09-07 07:06:58 51°18.429 2°50.724 3.4 263 15.3 100220 53
2010-09-07 07:07:04 51°18.428 2°50.721 4.9 304 15.3 100220 53
2010-09-07 07:07:08 51°18.428 2°50.719 3.7 263 15.3 100210 52
2010-09-07 07:07:13 51°18.427 2°50.717 5.3 304 15.3 100210 52
2010-09-07 07:07:18 51°18.426 2°50.714 4.1 263 15.3 100220 52
2010-09-07 07:07:23 51°18.426 2°50.712 4.1 280 15.3 100220 52
2010-09-07 07:07:28 51°18.425 2°50.709 4.3 266 15.3 100210 52
2010-09-07 07:07:33 51°18.424 2°50.707 4 308 15.3 100210 52
2010-09-07 07:07:38 51°18.424 2°50.705 4.5 263 15.3 100220 53
2010-09-07 07:07:43 51°18.423 2°50.702 3.7 308 15.3 100220 53
2010-09-07 07:07:48 51°18.423 2°50.7 5.3 266 15.3 100220 50
2010-09-07 07:07:53 51°18.422 2°50.697 4.2 307 15.3 100220 50
2010-09-07 07:07:58 51°18.421 2°50.695 4.7 265 15.3 100210 50
2010-09-07 07:08:04 51°18.421 2°50.692 4.2 305 15.3 100210 50
2010-09-07 07:08:08 51°18.42 2°50.69 4.2 263 15.3 100220 50
2010-09-07 07:08:13 51°18.419 2°50.688 4 308 15.3 100220 50
2010-09-07 07:08:18 51°18.419 2°50.685 4.1 265 15.3 100200 53
2010-09-07 07:08:24 51°18.418 2°50.682 4 303 15.3 100200 53
2010-09-07 07:08:28 51°18.418 2°50.681 4 264 15.3 100210 53
2010-09-07 07:08:33 51°18.417 2°50.678 3.8 303 15.3 100210 53
2010-09-07 07:08:38 51°18.417 2°50.676 3.7 267 15.3 100210 50
2010-09-07 07:08:43 51°18.416 2°50.673 4.8 302 15.3 100210 50
2010-09-07 07:08:48 51°18.416 2°50.671 4.8 265 15.3 100210 51
2010-09-07 07:08:53 51°18.415 2°50.669 4.4 304 15.3 100210 51
2010-09-07 07:08:58 51°18.414 2°50.666 5 264 15.3 100220 51
2010-09-07 07:09:04 51°18.414 2°50.664 4 309 15.3 100220 51
2010-09-07 07:09:08 51°18.413 2°50.662 4.8 263 15.3 100210 51
2010-09-07 07:09:13 51°18.413 2°50.659 4.8 309 15.3 100210 51
2010-09-07 07:09:18 51°18.412 2°50.657 4.3 262 15.3 100210 51
2010-09-07 07:09:24 51°18.411 2°50.654 4.8 279 15.3 100210 51
2010-09-07 07:09:28 51°18.411 2°50.652 4.1 264 15.3 100220 52
2010-09-07 07:09:33 51°18.41 2°50.649 4.6 306 15.3 100220 52
2010-09-07 07:09:38 51°18.41 2°50.647 5.1 263 15.3 100210 52
2010-09-07 07:09:43 51°18.409 2°50.645 5.3 308 15.3 100210 52
2010-09-07 07:09:48 51°18.408 2°50.642 3.6 263 15.3 100210 52
2010-09-07 07:09:53 51°18.408 2°50.64 3.8 305 15.3 100210 52
2010-09-07 07:09:58 51°18.407 2°50.637 4.3 263 15.2 100210 50
2010-09-07 07:10:03 51°18.407 2°50.635 4.7 306 15.2 100210 50
2010-09-07 07:10:08 51°18.406 2°50.632 4.7 261 15.3 100210 51
2010-09-07 07:10:13 51°18.406 2°50.63 4.7 304 15.3 100210 51
2010-09-07 07:10:18 51°18.405 2°50.628 6.4 260 15.3 100210 53
2010-09-07 07:10:24 51°18.404 2°50.625 5.5 308 15.3 100210 53
2010-09-07 07:10:28 51°18.404 2°50.622 4.2 264 15.3 100210 53
2010-09-07 07:10:33 51°18.403 2°50.62 3.8 309 15.3 100210 53
2010-09-07 07:10:38 51°18.402 2°50.618 3.9 263 15.3 100210 52
2010-09-07 07:10:43 51°18.402 2°50.615 3.9 307 15.3 100210 52
2010-09-07 07:10:48 51°18.401 2°50.613 4.3 264 15.3 100210 50
2010-09-07 07:10:53 51°18.401 2°50.61 4.2 309 15.3 100210 50
2010-09-07 07:10:58 51°18.4 2°50.608 3.9 263 15.3 100210 53
2010-09-07 07:11:03 51°18.399 2°50.605 3.9 302 15.3 100210 53
2010-09-07 07:11:08 51°18.399 2°50.603 4.2 265 15.4 100210 51
2010-09-07 07:11:13 51°18.398 2°50.6 3.9 307 15.4 100210 51
2010-09-07 07:11:18 51°18.398 2°50.598 4.9 265 15.3 100210 51
2010-09-07 07:11:24 51°18.397 2°50.595 5 283 15.3 100210 51
2010-09-07 07:11:28 51°18.396 2°50.593 5.6 262 15.4 100210 51
2010-09-07 07:11:33 51°18.396 2°50.59 5.2 305 15.4 100210 51
2010-09-07 07:11:38 51°18.395 2°50.587 5.8 261 15.4 100210 51
2010-09-07 07:11:44 51°18.395 2°50.584 5.7 307 15.4 100210 51
2010-09-07 07:11:48 51°18.394 2°50.581 5.8 261 15.3 100210 51
2010-09-07 07:11:53 51°18.394 2°50.578 6.1 303 15.3 100210 51
2010-09-07 07:11:58 51°18.393 2°50.573 3.8 261 15.4 100210 51
2010-09-07 07:12:03 51°18.393 2°50.568 5.7 303 15.4 100210 51
2010-09-07 07:12:08 51°18.393 2°50.562 5.8 261 15.4 100210 51
2010-09-07 07:12:13 51°18.394 2°50.556 5.5 308 15.4 100210 51
2010-09-07 07:12:18 51°18.394 2°50.549 5.8 259 15.4 100210 53
2010-09-07 07:12:23 51°18.395 2°50.541 4.7 306 15.4 100210 53
2010-09-07 07:12:28 51°18.396 2°50.533 4 260 15.4 100210 52
2010-09-07 07:12:33 51°18.397 2°50.524 4 305 15.4 100210 52
2010-09-07 07:12:38 51°18.399 2°50.515 4.4 263 15.3 100210 49
2010-09-07 07:12:44 51°18.403 2°50.504 3.3 303 15.3 100210 49
2010-09-07 07:12:48 51°18.406 2°50.496 4.5 268 15.4 100220 52
2010-09-07 07:12:53 51°18.41 2°50.488 4.9 52 15.4 100220 52
2010-09-07 07:12:58 51°18.414 2°50.479 3.4 19 15.3 100210 53
2010-09-07 07:13:03 51°18.42 2°50.472 3.3 64 15.3 100210 53
2010-09-07 07:13:08 51°18.426 2°50.466 2.8 24 15.3 100210 51
2010-09-07 07:13:13 51°18.432 2°50.461 2.4 58 15.3 100210 51
2010-09-07 07:13:18 51°18.439 2°50.457 1.8 22 15.4 100210 53
2010-09-07 07:13:23 51°18.446 2°50.455 0.6 77 15.4 100210 53
2010-09-07 07:13:28 51°18.454 2°50.454 0.4 22 15.4 100210 53
2010-09-07 07:13:33 51°18.463 2°50.451 0.1 60 15.4 100210 53
2010-09-07 07:13:38 51°18.472 2°50.449 0.1 21 15.4 100210 50
2010-09-07 07:13:44 51°18.484 2°50.445 0.1 310 15.4 100210 50
2010-09-07 07:13:48 51°18.492 2°50.442 0.1 263 15.4 100210 52
2010-09-07 07:13:53 51°18.502 2°50.439 -999 305 15.4 100210 52
2010-09-07 07:13:58 51°18.513 2°50.434 0.1 264 15.4 100210 52
2010-09-07 07:14:03 51°18.525 2°50.43 0.1 306 15.4 100210 52
2010-09-07 07:14:08 51°18.537 2°50.424 0.1 260 15.4 100200 51
2010-09-07 07:14:13 51°18.549 2°50.419 0.1 306 15.4 100200 51
2010-09-07 07:14:18 51°18.562 2°50.413 0.3 260 15.4 100210 52
2010-09-07 07:14:23 51°18.575 2°50.407 0.1 306 15.4 100210 52
2010-09-07 07:14:28 51°18.589 2°50.401 1 260 15.4 100210 51
2010-09-07 07:14:33 51°18.603 2°50.394 1.7 303 15.4 100210 51
2010-09-07 07:14:38 51°18.618 2°50.388 2 255 15.4 100210 52
2010-09-07 07:14:44 51°18.636 2°50.381 0.4 304 15.4 100210 52
2010-09-07 07:14:48 51°18.648 2°50.375 1.3 251 15.4 100210 51
2010-09-07 07:14:53 51°18.664 2°50.369 0.5 301 15.4 100210 51
2010-09-07 07:14:58 51°18.68 2°50.363 2.1 24 15.4 100210 51
2010-09-07 07:15:03 51°18.696 2°50.358 1 302 15.4 100210 51
2010-09-07 07:15:08 51°18.713 2°50.352 1.6 20 15.4 100200 51
2010-09-07 07:15:13 51°18.729 2°50.347 1.5 301 15.4 100200 51
2010-09-07 07:15:18 51°18.746 2°50.342 2.5 29 15.4 100210 50
2010-09-07 07:15:23 51°18.763 2°50.338 2.3 280 15.4 100210 50
2010-09-07 07:15:28 51°18.779 2°50.334 2.1 27 15.4 100200 51
2010-09-07 07:15:33 51°18.796 2°50.329 1.1 303 15.4 100200 51
2010-09-07 07:15:38 51°18.813 2°50.325 1.3 22 15.4 100210 51
2010-09-07 07:15:44 51°18.833 2°50.319 0.3 301 15.4 100210 51
2010-09-07 07:15:48 51°18.847 2°50.317 0.3 22 15.4 100200 51
2010-09-07 07:15:53 51°18.864 2°50.312 1.3 304 15.4 100200 51
2010-09-07 07:15:58 51°18.881 2°50.308 0.9 21 15.4 100210 50
2010-09-07 07:16:03 51°18.898 2°50.304 1.7 307 15.4 100210 50
2010-09-07 07:16:08 51°18.915 2°50.3 0.9 22 15.4 100210 51
2010-09-07 07:16:13 51°18.931 2°50.296 0.7 307 15.4 100210 51
2010-09-07 07:16:18 51°18.948 2°50.292 0.7 21 15.4 100210 53
2010-09-07 07:16:23 51°18.965 2°50.288 1.2 306 15.4 100210 53
2010-09-07 07:16:28 51°18.982 2°50.285 1.5 246 15.4 100210 51
2010-09-07 07:16:33 51°18.999 2°50.281 0.9 306 15.4 100210 51
2010-09-07 07:16:38 51°19.016 2°50.277 1.5 246 15.4 100200 54
2010-09-07 07:16:44 51°19.036 2°50.273 0.2 307 15.4 100200 54
2010-09-07 07:16:48 51°19.05 2°50.269 0.6 27 15.4 100200 53
2010-09-07 07:16:53 51°19.067 2°50.265 0.9 302 15.4 100200 53
2010-09-07 07:16:58 51°19.084 2°50.262 2.1 21 15.4 100210 53
2010-09-07 07:17:03 51°19.101 2°50.258 1.7 305 15.4 100210 53
2010-09-07 07:17:08 51°19.118 2°50.255 1.4 19 15.4 100210 52
2010-09-07 07:17:13 51°19.135 2°50.251 1.5 309 15.4 100210 52
2010-09-07 07:17:18 51°19.152 2°50.248 0.7 28 15.4 100210 51
2010-09-07 07:17:23 51°19.169 2°50.245 1.2 283 15.4 100210 51
2010-09-07 07:17:28 51°19.186 2°50.242 1.3 26 15.5 100210 54
2010-09-07 07:17:33 51°19.203 2°50.238 0.6 309 15.5 100210 54
2010-09-07 07:17:38 51°19.221 2°50.234 0.5 21 15.4 100210 52
2010-09-07 07:17:44 51°19.241 2°50.23 0.3 306 15.4 100210 52
2010-09-07 07:17:48 51°19.255 2°50.228 0.1 22 15.5 100210 53
2010-09-07 07:17:53 51°19.272 2°50.224 0.2 301 15.5 100210 53
2010-09-07 07:17:58 51°19.289 2°50.221 0.8 23 15.5 100200 49
2010-09-07 07:18:03 51°19.306 2°50.217 0.3 307 15.5 100200 49
2010-09-07 07:18:08 51°19.323 2°50.214 1 249 15.5 100210 52
2010-09-07 07:18:13 51°19.341 2°50.211 1.2 308 15.5 100210 52
2010-09-07 07:18:18 51°19.358 2°50.208 0.9 256 15.5 100210 52
2010-09-07 07:18:23 51°19.375 2°50.204 1.1 306 15.5 100210 52
2010-09-07 07:18:28 51°19.392 2°50.201 0.8 22 15.5 100210 51
2010-09-07 07:18:33 51°19.41 2°50.198 1.9 301 15.5 100210 51
2010-09-07 07:18:38 51°19.427 2°50.195 1.8 255 15.5 100210 51
2010-09-07 07:18:44 51°19.447 2°50.19 1.3 307 15.5 100210 51
2010-09-07 07:18:48 51°19.461 2°50.187 0.5 259 15.5 100220 53
2010-09-07 07:18:53 51°19.479 2°50.184 0.6 309 15.5 100220 53
2010-09-07 07:18:58 51°19.496 2°50.181 1 260 15.5 100210 51
2010-09-07 07:19:03 51°19.514 2°50.178 0.2 305 15.5 100210 51
2010-09-07 07:19:08 51°19.531 2°50.175 0.6 249 15.5 100210 51
2010-09-07 07:19:13 51°19.548 2°50.172 0.7 305 15.5 100210 51
2010-09-07 07:19:18 51°19.565 2°50.169 0.6 21 15.5 100220 52
2010-09-07 07:19:23 51°19.582 2°50.166 1.4 283 15.5 100220 52
2010-09-07 07:19:28 51°19.6 2°50.163 2.7 245 15.5 100210 52
2010-09-07 07:19:33 51°19.617 2°50.16 2.4 307 15.5 100210 52
2010-09-07 07:19:38 51°19.635 2°50.156 2.3 244 15.5 100210 50
2010-09-07 07:19:44 51°19.656 2°50.152 2.2 301 15.5 100210 50
2010-09-07 07:19:48 51°19.669 2°50.15 2.5 250 15.5 100220 51
2010-09-07 07:19:53 51°19.687 2°50.146 1.7 301 15.5 100220 51
2010-09-07 07:19:58 51°19.704 2°50.143 1.9 249 15.6 100210 51
2010-09-07 07:20:03 51°19.722 2°50.14 1.8 309 15.6 100210 51
2010-09-07 07:20:08 51°19.739 2°50.137 1.7 21 15.6 100210 54
2010-09-07 07:20:13 51°19.757 2°50.133 1.4 302 15.6 100210 54
2010-09-07 07:20:18 51°19.774 2°50.13 2.2 246 15.6 100210 52
2010-09-07 07:20:23 51°19.791 2°50.126 2.3 304 15.6 100210 52
2010-09-07 07:20:28 51°19.809 2°50.123 2.1 257 15.6 100210 53
2010-09-07 07:20:33 51°19.826 2°50.119 1.9 307 15.6 100210 53
2010-09-07 07:20:38 51°19.843 2°50.116 1.9 24 15.6 100210 52
2010-09-07 07:20:44 51°19.864 2°50.112 1.8 309 15.6 100210 52
2010-09-07 07:20:48 51°19.878 2°50.11 1.6 21 15.6 100210 53
2010-09-07 07:20:53 51°19.895 2°50.106 1.5 304 15.6 100210 53
2010-09-07 07:20:58 51°19.912 2°50.102 1.6 254 15.6 100210 51
2010-09-07 07:21:03 51°19.93 2°50.098 1.2 306 15.6 100210 51
2010-09-07 07:21:08 51°19.947 2°50.094 1.9 260 15.6 100210 53
2010-09-07 07:21:13 51°19.965 2°50.09 2.1 309 15.6 100210 53
2010-09-07 07:21:18 51°19.982 2°50.087 3 23 15.6 100210 51
2010-09-07 07:21:23 51°20 2°50.083 1.9 278 15.6 100210 51
2010-09-07 07:21:28 51°20.017 2°50.079 2.2 244 15.6 100200 51
2010-09-07 07:21:33 51°20.034 2°50.075 1.9 309 15.6 100200 51
2010-09-07 07:21:38 51°20.051 2°50.071 2.7 244 15.6 100210 54
2010-09-07 07:21:44 51°20.072 2°50.067 2.7 308 15.6 100210 54
2010-09-07 07:21:48 51°20.086 2°50.063 2.5 249 15.6 100200 51
2010-09-07 07:21:53 51°20.103 2°50.06 1.6 303 15.6 100200 51
2010-09-07 07:21:58 51°20.121 2°50.056 2 245 15.6 100210 51
2010-09-07 07:22:03 51°20.138 2°50.052 2.6 306 15.6 100210 51
2010-09-07 07:22:08 51°20.155 2°50.049 2.1 22 15.6 100200 53
2010-09-07 07:22:13 51°20.173 2°50.045 2.4 306 15.6 100200 53
2010-09-07 07:22:18 51°20.19 2°50.041 2.2 250 15.6 100210 50
2010-09-07 07:22:23 51°20.207 2°50.037 2.5 308 15.6 100210 50
2010-09-07 07:22:28 51°20.225 2°50.033 1.9 24 15.6 100200 53
2010-09-07 07:22:33 51°20.242 2°50.029 1.3 302 15.6 100200 53
2010-09-07 07:22:38 51°20.259 2°50.025 0.9 248 15.6 100200 51
2010-09-07 07:22:44 51°20.28 2°50.021 0.8 306 15.6 100200 51
2010-09-07 07:22:48 51°20.294 2°50.018 0.3 247 15.6 100200 54
2010-09-07 07:22:53 51°20.312 2°50.014 2 308 15.6 100200 54
2010-09-07 07:22:58 51°20.329 2°50.01 2.3 23 15.6 100200 51
2010-09-07 07:23:04 51°20.35 2°50.005 1.5 309 15.6 100200 51
2010-09-07 07:23:08 51°20.364 2°50.003 1.6 248 15.6 100200 52
2010-09-07 07:23:13 51°20.381 2°49.998 1.9 307 15.6 100200 52
2010-09-07 07:23:18 51°20.399 2°49.994 1.5 252 15.7 100200 49
2010-09-07 07:23:23 51°20.416 2°49.99 2.1 278 15.7 100200 49
2010-09-07 07:23:28 51°20.433 2°49.986 0.9 257 15.6 100200 54
2010-09-07 07:23:33 51°20.451 2°49.982 1.3 301 15.6 100200 54
2010-09-07 07:23:38 51°20.468 2°49.978 0.4 22 15.6 100210 50
2010-09-07 07:23:43 51°20.486 2°49.974 0.9 308 15.6 100210 50
2010-09-07 07:23:48 51°20.503 2°49.97 1 248 15.7 100200 52
2010-09-07 07:23:53 51°20.52 2°49.966 1.5 306 15.7 100200 52
2010-09-07 07:23:58 51°20.538 2°49.961 1.5 247 15.6 100210 52
2010-09-07 07:24:04 51°20.559 2°49.956 1.5 306 15.6 100210 52
2010-09-07 07:24:08 51°20.572 2°49.953 1.9 253 15.6 100200 51
2010-09-07 07:24:13 51°20.59 2°49.949 1.8 310 15.6 100200 51
2010-09-07 07:24:18 51°20.607 2°49.945 0.9 19 15.7 100200 54
2010-09-07 07:24:23 51°20.625 2°49.941 0.6 306 15.7 100200 54
2010-09-07 07:24:28 51°20.642 2°49.937 1.2 258 15.6 100200 51
2010-09-07 07:24:33 51°20.659 2°49.933 1.9 305 15.6 100200 51
2010-09-07 07:24:38 51°20.677 2°49.929 1.3 257 15.6 100200 50
2010-09-07 07:24:43 51°20.694 2°49.925 0.8 301 15.6 100200 50
2010-09-07 07:24:48 51°20.712 2°49.921 0.7 250 15.7 100200 51
2010-09-07 07:24:53 51°20.729 2°49.917 0.8 307 15.7 100200 51
2010-09-07 07:24:58 51°20.747 2°49.913 2.5 253 15.7 100200 52
2010-09-07 07:25:04 51°20.768 2°49.908 2.6 304 15.7 100200 52
2010-09-07 07:25:08 51°20.782 2°49.905 2.6 253 15.7 100200 51
2010-09-07 07:25:13 51°20.799 2°49.901 2.6 308 15.7 100200 51
2010-09-07 07:25:18 51°20.817 2°49.897 2.1 253 15.7 100200 53
2010-09-07 07:25:23 51°20.834 2°49.893 2.4 280 15.7 100200 53
2010-09-07 07:25:28 51°20.852 2°49.889 1.7 247 15.7 100200 52
2010-09-07 07:25:33 51°20.869 2°49.885 0.5 301 15.7 100200 52
2010-09-07 07:25:38 51°20.887 2°49.881 0.7 254 15.7 100200 51
2010-09-07 07:25:43 51°20.904 2°49.877 0.3 301 15.7 100200 51
2010-09-07 07:25:48 51°20.922 2°49.873 0.8 266 15.7 100200 51
2010-09-07 07:25:53 51°20.939 2°49.869 1.7 303 15.7 100200 51
2010-09-07 07:25:58 51°20.956 2°49.866 0.9 255 15.7 100200 53
2010-09-07 07:26:04 51°20.977 2°49.861 1.6 307 15.7 100200 53
2010-09-07 07:26:08 51°20.991 2°49.859 1.8 246 15.7 100200 51
2010-09-07 07:26:13 51°21.009 2°49.855 1.8 308 15.7 100200 51
2010-09-07 07:26:18 51°21.026 2°49.852 1.5 256 15.7 100200 53
2010-09-07 07:26:23 51°21.044 2°49.848 0.9 308 15.7 100200 53
2010-09-07 07:26:28 51°21.061 2°49.844 1.4 256 15.7 100200 50
2010-09-07 07:26:33 51°21.079 2°49.84 1.6 306 15.7 100200 50
2010-09-07 07:26:38 51°21.096 2°49.836 0.9 257 15.7 100200 53
2010-09-07 07:26:43 51°21.114 2°49.832 0.8 306 15.7 100200 53
2010-09-07 07:26:48 51°21.131 2°49.829 0.8 256 15.7 100200 51
2010-09-07 07:26:53 51°21.148 2°49.824 1.9 301 15.7 100200 51
2010-09-07 07:26:58 51°21.166 2°49.821 1.1 248 15.8 100190 51
2010-09-07 07:27:04 51°21.187 2°49.817 1.7 310 15.8 100190 51
2010-09-07 07:27:08 51°21.2 2°49.814 2.2 25 15.8 100200 54
2010-09-07 07:27:13 51°21.218 2°49.81 3.5 307 15.8 100200 54
2010-09-07 07:27:18 51°21.235 2°49.807 3 255 15.8 100190 51
2010-09-07 07:27:23 51°21.253 2°49.803 2.3 277 15.8 100190 51
2010-09-07 07:27:28 51°21.27 2°49.8 2.7 252 15.8 100200 51
2010-09-07 07:27:33 51°21.288 2°49.796 2.6 308 15.8 100200 51
2010-09-07 07:27:38 51°21.305 2°49.792 2.4 260 15.8 100200 52
2010-09-07 07:27:43 51°21.323 2°49.788 2.3 307 15.8 100200 52
2010-09-07 07:27:48 51°21.34 2°49.784 2.8 254 15.8 100200 52
2010-09-07 07:27:53 51°21.358 2°49.779 1.7 306 15.8 100200 52
2010-09-07 07:27:58 51°21.375 2°49.775 1.1 256 15.8 100200 51
2010-09-07 07:28:04 51°21.396 2°49.77 1.6 301 15.8 100200 51
2010-09-07 07:28:08 51°21.41 2°49.767 0.7 255 15.8 100210 51
2010-09-07 07:28:13 51°21.427 2°49.764 0.8 302 15.8 100210 51
2010-09-07 07:28:18 51°21.444 2°49.76 2.2 261 15.8 100200 52
2010-09-07 07:28:23 51°21.462 2°49.756 2.1 301 15.8 100200 52
2010-09-07 07:28:28 51°21.479 2°49.751 1.3 259 15.8 100210 50
2010-09-07 07:28:33 51°21.496 2°49.748 2.4 310 15.8 100210 50
2010-09-07 07:28:38 51°21.513 2°49.743 0.9 262 15.8 100200 49
2010-09-07 07:28:43 51°21.531 2°49.74 0.6 310 15.8 100200 49
2010-09-07 07:28:48 51°21.548 2°49.735 0.5 264 15.8 100200 53
2010-09-07 07:28:53 51°21.565 2°49.733 0.5 308 15.8 100200 53
2010-09-07 07:28:58 51°21.582 2°49.728 0.2 261 15.8 100200 51
2010-09-07 07:29:04 51°21.603 2°49.725 0.2 303 15.8 100200 51
2010-09-07 07:29:08 51°21.616 2°49.721 0.2 256 15.8 100200 51
2010-09-07 07:29:13 51°21.633 2°49.718 0.2 301 15.8 100200 51
2010-09-07 07:29:18 51°21.65 2°49.714 0.4 22 15.8 100200 52
2010-09-07 07:29:23 51°21.667 2°49.71 0.3 279 15.8 100200 52
2010-09-07 07:29:28 51°21.684 2°49.706 0.2 21 15.8 100200 52
2010-09-07 07:29:33 51°21.701 2°49.702 0.5 308 15.8 100200 52
2010-09-07 07:29:38 51°21.718 2°49.698 0.8 21 15.8 100200 52
2010-09-07 07:29:43 51°21.735 2°49.694 0.6 301 15.8 100200 52
2010-09-07 07:29:48 51°21.753 2°49.69 0.5 262 15.8 100200 52
2010-09-07 07:29:53 51°21.77 2°49.686 0.4 303 15.8 100200 52
2010-09-07 07:29:58 51°21.786 2°49.682 0.3 253 15.8 100200 53
2010-09-07 07:30:04 51°21.807 2°49.678 0.2 301 15.8 100200 53
2010-09-07 07:30:08 51°21.821 2°49.676 0.1 21 15.8 100200 52
2010-09-07 07:30:13 51°21.838 2°49.672 0.9 308 15.8 100200 52
2010-09-07 07:30:18 51°21.854 2°49.668 0.4 254 15.8 100210 52
2010-09-07 07:30:23 51°21.871 2°49.665 1.5 310 15.8 100210 52
2010-09-07 07:30:28 51°21.888 2°49.661 1.1 250 15.8 100190 52
2010-09-07 07:30:33 51°21.905 2°49.657 0.8 309 15.8 100190 52
2010-09-07 07:30:38 51°21.922 2°49.654 0.4 261 15.8 100200 52
2010-09-07 07:30:43 51°21.939 2°49.65 0.4 306 15.8 100200 52
2010-09-07 07:30:48 51°21.957 2°49.647 1.3 263 15.8 100200 54
2010-09-07 07:30:53 51°21.974 2°49.643 0.4 308 15.8 100200 54
2010-09-07 07:30:58 51°21.99 2°49.639 0.5 256 15.8 100200 52
2010-09-07 07:31:04 51°22.011 2°49.635 0.2 302 15.8 100200 52
2010-09-07 07:31:08 51°22.025 2°49.632 1 257 15.8 100200 51
2010-09-07 07:31:13 51°22.042 2°49.628 0.3 301 15.8 100200 51
2010-09-07 07:31:18 51°22.06 2°49.624 0.2 256 15.8 100200 50
2010-09-07 07:31:23 51°22.077 2°49.62 0.3 283 15.8 100200 50
2010-09-07 07:31:28 51°22.094 2°49.617 0.8 22 15.8 100200 52
2010-09-07 07:31:33 51°22.112 2°49.613 1.3 304 15.8 100200 52
2010-09-07 07:31:38 51°22.129 2°49.609 0.8 21 15.8 100190 52
2010-09-07 07:31:43 51°22.146 2°49.606 1.4 309 15.8 100190 52
2010-09-07 07:31:48 51°22.163 2°49.601 1.1 248 15.9 100200 51
2010-09-07 07:31:53 51°22.18 2°49.599 0.7 308 15.9 100200 51
2010-09-07 07:31:58 51°22.198 2°49.595 1.2 257 15.9 100200 52
2010-09-07 07:32:04 51°22.218 2°49.592 0.3 306 15.9 100200 52
2010-09-07 07:32:08 51°22.232 2°49.59 0.7 257 15.9 100200 51
2010-09-07 07:32:13 51°22.249 2°49.587 0.5 306 15.9 100200 51
2010-09-07 07:32:18 51°22.266 2°49.585 0.3 256 15.9 100200 52
2010-09-07 07:32:23 51°22.283 2°49.581 0.2 283 15.9 100200 52
2010-09-07 07:32:28 51°22.301 2°49.578 0.2 21 15.9 100200 52
2010-09-07 07:32:33 51°22.318 2°49.575 0.5 307 15.9 100200 52
2010-09-07 07:32:38 51°22.336 2°49.574 0.6 23 15.9 100200 52
2010-09-07 07:32:43 51°22.353 2°49.57 0.4 303 15.9 100200 52
2010-09-07 07:32:48 51°22.371 2°49.567 0.5 254 15.9 100200 52
2010-09-07 07:32:53 51°22.388 2°49.562 0.6 304 15.9 100200 52
2010-09-07 07:32:58 51°22.405 2°49.558 0.2 252 15.9 100200 52
2010-09-07 07:33:04 51°22.425 2°49.551 0.8 301 15.9 100200 52
2010-09-07 07:33:08 51°22.439 2°49.548 0.3 257 15.9 100200 53
2010-09-07 07:33:13 51°22.456 2°49.542 1 308 15.9 100200 53
2010-09-07 07:33:18 51°22.473 2°49.537 0.3 252 15.9 100190 52
2010-09-07 07:33:23 51°22.49 2°49.531 1.1 279 15.9 100190 52
2010-09-07 07:33:28 51°22.507 2°49.525 0.5 20 15.9 100200 51
2010-09-07 07:33:33 51°22.524 2°49.52 0.8 301 15.9 100200 51
2010-09-07 07:33:38 51°22.541 2°49.514 1.4 20 15.9 100190 53
2010-09-07 07:33:43 51°22.558 2°49.508 1.2 306 15.9 100190 53
2010-09-07 07:33:48 51°22.574 2°49.502 1.3 27 15.9 100200 52
2010-09-07 07:33:53 51°22.591 2°49.497 0.9 301 15.9 100200 52
2010-09-07 07:33:58 51°22.608 2°49.491 1.2 250 15.9 100200 50
2010-09-07 07:34:04 51°22.628 2°49.484 0.6 306 15.9 100200 50
2010-09-07 07:34:08 51°22.642 2°49.48 0.9 250 15.9 100200 50
2010-09-07 07:34:13 51°22.659 2°49.474 0.8 306 15.9 100200 50
2010-09-07 07:34:18 51°22.675 2°49.469 0.7 254 15.9 100200 52
2010-09-07 07:34:24 51°22.695 2°49.462 0.2 306 15.9 100200 52
2010-09-07 07:34:28 51°22.708 2°49.458 0.4 24 16 100190 53
2010-09-07 07:34:33 51°22.725 2°49.452 0.9 306 16 100190 53
2010-09-07 07:34:38 51°22.742 2°49.446 0.4 22 15.9 100200 52
2010-09-07 07:34:43 51°22.758 2°49.439 1 307 15.9 100200 52
2010-09-07 07:34:48 51°22.776 2°49.432 1.2 23 16 100200 52
2010-09-07 07:34:53 51°22.792 2°49.425 1.5 303 16 100200 52
2010-09-07 07:34:58 51°22.808 2°49.418 1.1 249 16 100200 52
2010-09-07 07:35:04 51°22.827 2°49.41 0.9 301 16 100200 52
2010-09-07 07:35:08 51°22.84 2°49.404 1.4 21 16 100190 53
2010-09-07 07:35:13 51°22.857 2°49.397 1.3 301 16 100190 53
2010-09-07 07:35:18 51°22.873 2°49.39 1.4 22 16 100200 52
2010-09-07 07:35:23 51°22.889 2°49.383 1.6 283 16 100200 52
2010-09-07 07:35:28 51°22.905 2°49.377 1.9 28 16 100200 54
2010-09-07 07:35:33 51°22.922 2°49.37 1.3 302 16 100200 54
2010-09-07 07:35:38 51°22.939 2°49.364 1.1 22 16 100200 50
2010-09-07 07:35:43 51°22.955 2°49.356 1.7 308 16 100200 50
2010-09-07 07:35:48 51°22.971 2°49.348 1.8 245 16 100200 52
2010-09-07 07:35:53 51°22.987 2°49.34 2.8 301 16 100200 52
2010-09-07 07:35:58 51°23.003 2°49.334 2.1 22 16 100190 51
2010-09-07 07:36:04 51°23.023 2°49.324 2.1 307 16 100190 51
2010-09-07 07:36:08 51°23.036 2°49.318 2 24 16.1 100200 51
2010-09-07 07:36:13 51°23.053 2°49.31 1.6 308 16.1 100200 51
2010-09-07 07:36:18 51°23.069 2°49.302 2.6 23 16.1 100190 54
2010-09-07 07:36:23 51°23.085 2°49.294 2.4 279 16.1 100190 54
2010-09-07 07:36:28 51°23.102 2°49.287 2 253 16.1 100200 51
2010-09-07 07:36:33 51°23.118 2°49.28 2.1 307 16.1 100200 51
2010-09-07 07:36:38 51°23.133 2°49.272 1.7 22 16.1 100190 52
2010-09-07 07:36:43 51°23.148 2°49.265 1.8 307 16.1 100190 52
2010-09-07 07:36:48 51°23.163 2°49.257 1.3 252 16.1 100200 51
2010-09-07 07:36:53 51°23.178 2°49.25 2.7 302 16.1 100200 51
2010-09-07 07:36:58 51°23.192 2°49.242 2.2 246 16 100200 54
2010-09-07 07:37:04 51°23.208 2°49.234 2.2 301 16 100200 54
2010-09-07 07:37:08 51°23.219 2°49.229 1.7 254 16 100200 51
2010-09-07 07:37:13 51°23.231 2°49.223 2.2 308 16 100200 51
2010-09-07 07:37:18 51°23.243 2°49.217 2.1 258 16 100200 50
2010-09-07 07:37:23 51°23.255 2°49.211 2.4 308 16 100200 50
2010-09-07 07:37:28 51°23.266 2°49.205 1.2 261 16 100200 51
2010-09-07 07:37:33 51°23.277 2°49.2 1.3 307 16 100200 51
2010-09-07 07:37:38 51°23.287 2°49.194 0.9 263 16 100200 54
2010-09-07 07:37:43 51°23.297 2°49.189 1.5 306 16 100200 54
2010-09-07 07:37:48 51°23.307 2°49.183 1 268 16 100200 51
2010-09-07 07:37:53 51°23.316 2°49.178 2.3 302 16 100200 51
2010-09-07 07:37:58 51°23.325 2°49.173 2.3 261 16 100200 50
2010-09-07 07:38:04 51°23.336 2°49.167 2.1 308 16 100200 50
2010-09-07 07:38:08 51°23.342 2°49.163 2.2 264 16 100200 51
2010-09-07 07:38:13 51°23.35 2°49.157 2.1 308 16 100200 51
2010-09-07 07:38:18 51°23.358 2°49.152 2.2 266 16 100200 53
2010-09-07 07:38:23 51°23.366 2°49.146 2 307 16 100200 53
2010-09-07 07:38:28 51°23.374 2°49.141 2.4 268 16 100200 53
2010-09-07 07:38:33 51°23.381 2°49.136 2.2 303 16 100200 53
2010-09-07 07:38:38 51°23.389 2°49.131 2.5 270 16 100210 53
2010-09-07 07:38:43 51°23.396 2°49.125 2.9 304 16 100210 53
2010-09-07 07:38:48 51°23.404 2°49.12 3 268 16 100200 52
2010-09-07 07:38:53 51°23.411 2°49.114 2.6 55 16 100200 52
2010-09-07 07:38:58 51°23.418 2°49.109 2.3 24 16 100200 51
2010-09-07 07:39:04 51°23.427 2°49.103 2.4 60 16 100200 51
2010-09-07 07:39:08 51°23.432 2°49.099 2 265 16 100200 53
2010-09-07 07:39:13 51°23.439 2°49.094 2.8 304 16 100200 53
2010-09-07 07:39:18 51°23.447 2°49.09 2.5 30 15.9 100200 49
2010-09-07 07:39:23 51°23.454 2°49.085 2.4 55 15.9 100200 49
2010-09-07 07:39:28 51°23.461 2°49.08 2.3 24 15.9 100190 51
2010-09-07 07:39:33 51°23.468 2°49.076 2.3 50 15.9 100190 51
2010-09-07 07:39:38 51°23.475 2°49.071 2.1 266 15.9 100200 53
2010-09-07 07:39:43 51°23.481 2°49.067 2.7 15 15.9 100200 53
2010-09-07 07:39:48 51°23.488 2°49.062 2.7 27 15.9 100200 49
2010-09-07 07:39:53 51°23.494 2°49.057 3.2 54 15.9 100200 49
2010-09-07 07:39:58 51°23.499 2°49.052 2.9 24 15.9 100200 52
2010-09-07 07:40:04 51°23.505 2°49.046 3.3 59 15.9 100200 52
2010-09-07 07:40:08 51°23.509 2°49.041 3.5 21 16 100200 51
2010-09-07 07:40:13 51°23.514 2°49.036 3.9 53 16 100200 51
2010-09-07 07:40:18 51°23.518 2°49.031 4 26 16 100200 51
2010-09-07 07:40:23 51°23.522 2°49.026 4.1 80 16 100200 51
2010-09-07 07:40:28 51°23.525 2°49.021 3.5 266 15.9 100200 50
2010-09-07 07:40:33 51°23.528 2°49.017 4.2 62 15.9 100200 50
2010-09-07 07:40:38 51°23.53 2°49.011 4.9 270 15.9 100200 53
2010-09-07 07:40:43 51°23.532 2°49.007 4.4 307 15.9 100200 53
2010-09-07 07:40:48 51°23.533 2°49.002 4.1 266 16 100200 51
2010-09-07 07:40:53 51°23.534 2°48.998 4.4 303 16 100200 51
2010-09-07 07:40:58 51°23.535 2°48.993 3.9 266 15.9 100200 53
2010-09-07 07:41:03 51°23.535 2°48.99 3.4 59 15.9 100200 53
2010-09-07 07:41:08 51°23.535 2°48.986 5.1 266 16 100200 51
2010-09-07 07:41:13 51°23.535 2°48.983 4.2 308 16 100200 51
2010-09-07 07:41:18 51°23.534 2°48.981 3.9 267 15.9 100200 53
2010-09-07 07:41:24 51°23.533 2°48.979 4.4 301 15.9 100200 53
2010-09-07 07:41:28 51°23.532 2°48.978 4.8 262 16 100200 53
2010-09-07 07:41:33 51°23.531 2°48.976 5.7 305 16 100200 53
2010-09-07 07:41:38 51°23.53 2°48.975 4.1 263 15.9 100200 51
2010-09-07 07:41:43 51°23.529 2°48.973 5 305 15.9 100200 51
2010-09-07 07:41:48 51°23.528 2°48.972 4.9 262 16 100200 53
2010-09-07 07:41:53 51°23.527 2°48.971 4.1 306 16 100200 53
2010-09-07 07:41:58 51°23.526 2°48.969 3.7 262 16 100210 51
2010-09-07 07:42:03 51°23.525 2°48.968 3.8 307 16 100210 51
2010-09-07 07:42:08 51°23.524 2°48.967 3.5 262 16 100200 51
2010-09-07 07:42:13 51°23.523 2°48.965 4.8 308 16 100200 51
2010-09-07 07:42:18 51°23.522 2°48.964 3.9 265 16 100200 51
2010-09-07 07:42:24 51°23.52 2°48.962 3.8 307 16 100200 51
2010-09-07 07:42:28 51°23.52 2°48.961 4 266 16 100200 52
2010-09-07 07:42:33 51°23.519 2°48.96 4.1 304 16 100200 52
2010-09-07 07:42:38 51°23.517 2°48.958 4.1 267 16 100200 51
2010-09-07 07:42:43 51°23.516 2°48.957 5 305 16 100200 51
2010-09-07 07:42:48 51°23.515 2°48.956 4.8 267 16 100200 53
2010-09-07 07:42:53 51°23.514 2°48.955 5.5 303 16 100200 53
2010-09-07 07:42:58 51°23.513 2°48.953 5 269 16 100200 53
2010-09-07 07:43:03 51°23.512 2°48.952 5.7 303 16 100200 53
2010-09-07 07:43:08 51°23.511 2°48.951 5.4 270 16 100200 53
2010-09-07 07:43:13 51°23.51 2°48.949 5.5 58 16 100200 53
2010-09-07 07:43:18 51°23.509 2°48.948 5.9 31 16 100200 51
2010-09-07 07:43:24 51°23.508 2°48.947 5.7 52 16 100200 51
2010-09-07 07:43:28 51°23.507 2°48.946 5.1 23 16 100200 50
2010-09-07 07:43:33 51°23.506 2°48.944 5.7 53 16 100200 50
2010-09-07 07:43:38 51°23.505 2°48.943 5.7 28 16 100200 51
2010-09-07 07:43:43 51°23.504 2°48.942 5.3 59 16 100200 51
2010-09-07 07:43:48 51°23.502 2°48.94 6.2 26 16 100200 51
2010-09-07 07:43:53 51°23.502 2°48.939 6.5 59 16 100200 51
2010-09-07 07:43:58 51°23.501 2°48.938 6.2 22 16 100210 53
2010-09-07 07:44:03 51°23.499 2°48.936 5.7 54 16 100210 53